Tracking 27422 objects as of 31-May-2023
HD Live streaming from Space Station
objects crossing your sky now

STARLINK-4302

Track STARLINK-4302 now!
10-day predictions
STARLINK-4302 is classified as:


NORAD ID: 53481
Int'l Code: 2022-099S
Perigee: 569.7 km
Apogee: 570.6 km
Inclination: 97.7 °
Period: 95.9 minutes
Semi major axis: 6941 km
RCS: Unknown
Launch date: August 12, 2022
Source: United States (US)
Launch site: AIR FORCE WESTERN TEST RANGE (AFWTR)
Your satellite tracking list
Your tracking list is empty




NASA's NSSDC Master Catalog

Two Line Element Set (TLE):
1 53481U 22099S   23150.78772635 -.00000258  00000-0 -15498-4 0  9997
2 53481  97.6542 272.1207 0000710 118.5959 241.5336 15.01260202 44105
Source of the keplerian elements: AFSPC